Time,TemperatureF,DewpointF,PressureIn,WindDirection,WindDirectionDegrees,WindSpeedMPH,WindSpeedGustMPH,Humidity,HourlyPrecipIn,Conditions,Clouds,dailyrainin,SoftwareType,DateUTC
2013-03-07 00:03:00,38.8,38.0,29.92,WSW,258,2.0,3.0,97,0.01,-RA,-RA,0.72,WeatherDisplay:10.37,2013-03-07 08:03:00,
2013-03-07 00:13:00,39.1,38.3,29.93,SW,234,0.0,3.0,97,0.01,-RA,-RA,0.73,WeatherDisplay:10.37,2013-03-07 08:13:00,
2013-03-07 00:18:00,39.1,38.3,29.93,WSW,251,0.0,1.0,97,0.00,-RA,-RA,0.73,WeatherDisplay:10.37,2013-03-07 08:18:00,
2013-03-07 00:23:00,39.2,38.4,29.93,West,260,0.0,1.0,97,0.01,-RA,-RA,0.74,WeatherDisplay:10.37,2013-03-07 08:23:00,
2013-03-07 00:33:00,39.3,38.5,29.94,SW,217,0.0,1.0,97,0.01,-RA,-RA,0.75,WeatherDisplay:10.37,2013-03-07 08:33:00,
2013-03-07 00:38:00,39.3,38.5,29.94,SW,235,1.0,5.0,97,0.00,-RA,-RA,0.75,WeatherDisplay:10.37,2013-03-07 08:38:00,
2013-03-07 00:43:00,39.4,38.6,29.94,WSW,242,0.0,2.0,97,0.01,-RA,-RA,0.76,WeatherDisplay:10.37,2013-03-07 08:43:00,
2013-03-07 00:48:00,39.5,38.7,29.94,SW,233,0.0,1.0,97,0.00,-RA,-RA,0.76,WeatherDisplay:10.37,2013-03-07 08:48:00,
2013-03-07 00:58:00,39.6,38.8,29.94,West,264,0.0,2.0,97,0.01,-RA,-RA,0.78,WeatherDisplay:10.37,2013-03-07 08:58:00,
2013-03-07 01:03:00,39.6,38.8,29.94,West,266,0.0,1.0,97,0.01,-RA,-RA,0.79,WeatherDisplay:10.37,2013-03-07 09:03:00,
2013-03-07 01:08:00,39.6,38.8,29.95,WSW,256,0.0,0.0,97,0.00,-RA,-RA,0.79,WeatherDisplay:10.37,2013-03-07 09:08:00,
2013-03-07 01:13:00,39.6,38.8,29.95,WSW,247,0.0,1.0,97,0.01,-RA,-RA,0.80,WeatherDisplay:10.37,2013-03-07 09:13:00,
2013-03-07 01:18:00,39.7,38.7,29.95,WSW,254,1.0,2.0,96,0.00,-RA,-RA,0.80,WeatherDisplay:10.37,2013-03-07 09:18:00,
2013-03-07 01:23:00,39.7,38.7,29.95,West,262,0.0,2.0,96,0.01,-RA,-RA,0.81,WeatherDisplay:10.37,2013-03-07 09:23:00,
2013-03-07 01:28:00,39.7,38.7,29.95,WSW,245,0.0,1.0,96,0.01,-RA,-RA,0.82,WeatherDisplay:10.37,2013-03-07 09:28:00,
2013-03-07 01:38:00,39.7,38.7,29.96,WSW,249,0.0,2.0,96,0.01,-RA,-RA,0.83,WeatherDisplay:10.37,2013-03-07 09:38:00,
2013-03-07 01:43:00,39.7,38.7,29.96,WSW,252,0.0,1.0,96,0.01,-RA,-RA,0.84,WeatherDisplay:10.37,2013-03-07 09:43:00,
2013-03-07 01:48:00,39.7,38.7,29.97,WSW,247,1.0,2.0,96,0.01,-RA,-RA,0.85,WeatherDisplay:10.37,2013-03-07 09:48:00,
2013-03-07 01:53:00,39.7,38.7,29.97,WSW,242,0.0,1.0,96,0.01,-RA,-RA,0.86,WeatherDisplay:10.37,2013-03-07 09:53:00,
2013-03-07 02:03:00,39.7,38.7,29.97,WSW,245,0.0,0.0,96,0.01,-RA,-RA,0.87,WeatherDisplay:10.37,2013-03-07 10:03:00,
2013-03-07 02:13:00,39.7,38.6,29.97,WSW,249,0.0,0.0,96,0.01,-RA,-RA,0.88,WeatherDisplay:10.37,2013-03-07 10:13:00,
2013-03-07 02:18:00,39.6,38.6,29.97,WSW,249,0.0,0.0,96,0.01,-RA,-RA,0.89,WeatherDisplay:10.37,2013-03-07 10:18:00,
2013-03-07 02:28:00,39.6,38.6,29.97,WSW,249,0.0,0.0,96,0.01,-RA,-RA,0.90,WeatherDisplay:10.37,2013-03-07 10:28:00,
2013-03-07 02:33:00,39.6,38.6,29.97,WSW,249,0.0,0.0,96,0.00,-RA,-RA,0.90,WeatherDisplay:10.37,2013-03-07 10:33:00,
2013-03-07 02:38:00,39.6,38.6,29.97,WSW,249,0.0,0.0,96,0.01,-RA,-RA,0.91,WeatherDisplay:10.37,2013-03-07 10:38:00,
2013-03-07 02:43:00,39.6,38.6,29.97,WSW,249,0.0,0.0,96,0.00,-RA,-RA,0.91,WeatherDisplay:10.37,2013-03-07 10:43:00,
2013-03-07 02:53:00,39.6,38.6,29.98,WSW,249,0.0,0.0,96,0.01,-RA,-RA,0.92,WeatherDisplay:10.37,2013-03-07 10:53:00,
2013-03-07 02:58:00,39.6,38.8,29.98,WSW,249,0.0,0.0,97,0.00,-RA,-RA,0.92,WeatherDisplay:10.37,2013-03-07 10:58:00,
2013-03-07 03:03:00,39.6,38.8,29.98,WSW,250,0.0,0.0,97,0.01,-RA,-RA,0.93,WeatherDisplay:10.37,2013-03-07 11:03:00,
2013-03-07 03:08:00,39.6,38.8,29.98,WSW,241,0.0,2.0,97,0.00,-RA,-RA,0.93,WeatherDisplay:10.37,2013-03-07 11:08:00,
2013-03-07 03:18:00,39.6,38.8,29.98,SW,232,0.0,0.0,97,0.00,-RA,-RA,0.94,WeatherDisplay:10.37,2013-03-07 11:18:00,
2013-03-07 03:23:00,39.6,38.8,29.98,SW,232,0.0,0.0,97,0.01,-RA,-RA,0.95,WeatherDisplay:10.37,2013-03-07 11:23:00,
2013-03-07 03:33:00,39.6,38.8,29.98,SW,232,0.0,0.0,97,0.00,-RA,-RA,0.95,WeatherDisplay:10.37,2013-03-07 11:33:00,
2013-03-07 03:38:00,39.6,38.8,29.98,SW,232,0.0,0.0,97,0.01,-RA,-RA,0.96,WeatherDisplay:10.37,2013-03-07 11:38:00,
2013-03-07 03:43:00,39.6,38.8,29.98,SW,232,0.0,0.0,97,0.00,-RA,-RA,0.96,WeatherDisplay:10.37,2013-03-07 11:43:00,
2013-03-07 03:48:00,39.6,38.8,29.98,SW,232,0.0,0.0,97,0.00,-RA,-RA,0.96,WeatherDisplay:10.37,2013-03-07 11:48:00,
2013-03-07 03:53:00,39.6,38.8,29.98,SW,232,0.0,0.0,97,0.00,-RA,-RA,0.96,WeatherDisplay:10.37,2013-03-07 11:53:00,
2013-03-07 04:03:00,39.6,38.8,29.99,SW,232,0.0,0.0,97,0.01,-RA,-RA,0.97,WeatherDisplay:10.37,2013-03-07 12:03:00,
2013-03-07 04:08:00,39.6,38.8,29.99,SW,215,0.0,1.0,97,0.00,-RA,-RA,0.97,WeatherDisplay:10.37,2013-03-07 12:08:00,
2013-03-07 04:13:00,39.6,38.8,29.99,SSW,212,0.0,1.0,97,0.00,-RA,-RA,0.97,WeatherDisplay:10.37,2013-03-07 12:13:00,
2013-03-07 04:18:00,39.5,38.7,29.99,SSW,203,0.0,1.0,97,0.01,-RA,-RA,0.98,WeatherDisplay:10.37,2013-03-07 12:18:00,
2013-03-07 04:23:00,39.5,38.7,29.99,South,174,0.0,0.0,97,0.00,-RA,-RA,0.98,WeatherDisplay:10.37,2013-03-07 12:23:00,
2013-03-07 04:28:00,39.5,38.7,29.99,SSW,210,0.0,0.0,97,0.00,-RA,-RA,0.98,WeatherDisplay:10.37,2013-03-07 12:28:00,
2013-03-07 04:33:00,39.5,38.7,29.99,SSE,165,0.0,1.0,97,0.00,-RA,-RA,0.98,WeatherDisplay:10.37,2013-03-07 12:33:00,
2013-03-07 04:38:00,39.5,38.7,30.00,SE,125,0.0,0.0,97,0.00,-RA,-RA,0.98,WeatherDisplay:10.37,2013-03-07 12:38:00,
2013-03-07 04:43:00,39.5,38.7,30.00,SE,126,0.0,0.0,97,0.01,-RA,-RA,0.99,WeatherDisplay:10.37,2013-03-07 12:43:00,
2013-03-07 04:48:00,39.5,38.7,29.99,SE,126,0.0,0.0,97,0.00,-RA,-RA,0.99,WeatherDisplay:10.37,2013-03-07 12:48:00,
2013-03-07 04:53:00,39.5,38.7,29.99,SE,126,0.0,0.0,97,0.00,-RA,-RA,0.99,WeatherDisplay:10.37,2013-03-07 12:53:00,
2013-03-07 04:58:00,39.4,38.7,30.00,SE,126,0.0,0.0,97,0.01,-RA,-RA,1.00,WeatherDisplay:10.37,2013-03-07 12:58:00,
2013-03-07 05:03:00,39.4,38.6,30.00,SE,138,0.0,1.0,97,0.00,-RA,-RA,1.00,WeatherDisplay:10.37,2013-03-07 13:03:00,
2013-03-07 05:13:00,39.4,38.6,30.00,SSE,168,0.0,0.0,97,0.01,-RA,-RA,1.01,WeatherDisplay:10.37,2013-03-07 13:13:00,
2013-03-07 05:18:00,39.3,38.5,30.00,South,169,0.0,0.0,97,0.00,-RA,-RA,1.01,WeatherDisplay:10.37,2013-03-07 13:18:00,
2013-03-07 05:23:00,39.3,38.5,30.00,South,170,0.0,0.0,97,0.01,-RA,-RA,1.02,WeatherDisplay:10.37,2013-03-07 13:23:00,
2013-03-07 05:28:00,39.3,38.5,30.00,South,170,0.0,0.0,97,0.00,-RA,-RA,1.02,WeatherDisplay:10.37,2013-03-07 13:28:00,
2013-03-07 05:33:00,39.3,38.5,30.00,South,170,0.0,0.0,97,0.00,-RA,-RA,1.02,WeatherDisplay:10.37,2013-03-07 13:33:00,
2013-03-07 05:43:00,39.3,38.5,30.01,South,170,0.0,0.0,97,0.00,-RA,-RA,1.03,WeatherDisplay:10.37,2013-03-07 13:43:00,
2013-03-07 05:48:00,39.3,38.5,30.01,South,170,0.0,0.0,97,0.00,-RA,-RA,1.03,WeatherDisplay:10.37,2013-03-07 13:48:00,
2013-03-07 05:53:00,39.3,38.5,30.01,South,170,0.0,0.0,97,0.01,-RA,-RA,1.04,WeatherDisplay:10.37,2013-03-07 13:53:00,
2013-03-07 05:58:00,39.3,38.5,30.01,South,170,0.0,0.0,97,0.00,-RA,-RA,1.04,WeatherDisplay:10.37,2013-03-07 13:58:00,
2013-03-07 06:03:00,39.3,38.5,30.01,South,170,0.0,0.0,97,0.00,-RA,-RA,1.04,WeatherDisplay:10.37,2013-03-07 14:03:00,
2013-03-07 06:08:00,39.3,38.5,30.01,South,170,0.0,0.0,97,0.01,-RA,-RA,1.05,WeatherDisplay:10.37,2013-03-07 14:08:00,
2013-03-07 06:13:00,39.3,38.5,30.01,South,170,0.0,0.0,97,0.00,-RA,-RA,1.05,WeatherDisplay:10.37,2013-03-07 14:13:00,
2013-03-07 06:18:00,39.3,38.5,30.01,South,170,0.0,0.0,97,0.00,-RA,-RA,1.05,WeatherDisplay:10.37,2013-03-07 14:18:00,
2013-03-07 06:23:00,39.3,38.5,30.02,South,170,0.0,0.0,97,0.00,-RA,-RA,1.05,WeatherDisplay:10.37,2013-03-07 14:23:00,
2013-03-07 06:28:00,39.3,38.5,30.02,South,170,0.0,0.0,97,0.00,-RA,-RA,1.05,WeatherDisplay:10.37,2013-03-07 14:28:00,
2013-03-07 06:33:00,39.3,38.5,30.02,South,170,0.0,0.0,97,0.00,-RA,-RA,1.05,WeatherDisplay:10.37,2013-03-07 14:33:00,
2013-03-07 06:48:00,39.3,38.5,30.02,South,170,0.0,0.0,97,0.00,-RA,-RA,1.06,WeatherDisplay:10.37,2013-03-07 14:48:00,
2013-03-07 06:53:00,39.3,38.5,30.03,South,170,0.0,0.0,97,0.00,-RA,-RA,1.06,WeatherDisplay:10.37,2013-03-07 14:53:00,
2013-03-07 06:58:00,39.3,38.5,30.03,South,170,0.0,0.0,97,0.00,-RA,-RA,1.06,WeatherDisplay:10.37,2013-03-07 14:58:00,
2013-03-07 07:03:00,39.4,38.6,30.03,South,170,0.0,0.0,97,0.00,-RA,-RA,0.00,WeatherDisplay:10.37,2013-03-07 15:03:00,
2013-03-07 07:08:00,39.4,38.6,30.03,South,170,0.0,0.0,97,0.01,-RA,-RA,0.01,WeatherDisplay:10.37,2013-03-07 15:08:00,
2013-03-07 07:13:00,39.4,38.7,30.03,South,170,0.0,0.0,97,0.00,-RA,-RA,0.01,WeatherDisplay:10.37,2013-03-07 15:13:00,
2013-03-07 07:18:00,39.5,38.7,30.03,South,171,0.0,0.0,97,0.00,-RA,-RA,0.01,WeatherDisplay:10.37,2013-03-07 15:18:00,
2013-03-07 07:23:00,39.6,38.8,30.03,South,172,0.0,0.0,97,0.00,-RA,-RA,0.01,WeatherDisplay:10.37,2013-03-07 15:23:00,
2013-03-07 07:28:00,39.7,38.9,30.03,South,172,0.0,0.0,97,0.00,-RA,-RA,0.01,WeatherDisplay:10.37,2013-03-07 15:28:00,
2013-03-07 07:33:00,39.7,38.9,30.04,South,172,0.0,0.0,97,0.00,-RA,-RA,0.01,WeatherDisplay:10.37,2013-03-07 15:33:00,
2013-03-07 07:38:00,39.8,39.0,30.04,South,172,0.0,0.0,97,0.00,-RA,-RA,0.01,WeatherDisplay:10.37,2013-03-07 15:38:00,
2013-03-07 07:43:00,39.9,39.1,30.04,South,172,0.0,0.0,97,0.00,-RA,-RA,0.01,WeatherDisplay:10.37,2013-03-07 15:43:00,
2013-03-07 07:48:00,40.0,39.2,30.04,South,172,0.0,0.0,97,0.00,-RA,-RA,0.01,WeatherDisplay:10.37,2013-03-07 15:48:00,
2013-03-07 07:53:00,40.0,39.2,30.04,South,172,0.0,0.0,97,0.00,-RA,-RA,0.01,WeatherDisplay:10.37,2013-03-07 15:53:00,
2013-03-07 07:58:00,40.1,39.3,30.04,South,172,0.0,0.0,97,0.00,-RA,-RA,0.01,WeatherDisplay:10.37,2013-03-07 15:58:00,
2013-03-07 08:03:00,40.2,39.4,30.05,South,172,0.0,0.0,97,0.00,-RA,-RA,0.01,WeatherDisplay:10.37,2013-03-07 16:03:00,
2013-03-07 08:08:00,40.3,39.5,30.05,South,172,0.0,0.0,97,0.00,-RA,-RA,0.01,WeatherDisplay:10.37,2013-03-07 16:08:00,
2013-03-07 08:13:00,40.4,39.6,30.05,South,172,0.0,0.0,97,0.01,-RA,-RA,0.02,WeatherDisplay:10.37,2013-03-07 16:13:00,
2013-03-07 08:18:00,40.6,39.8,30.05,South,172,0.0,0.0,97,0.00,-RA,-RA,0.02,WeatherDisplay:10.37,2013-03-07 16:18:00,
2013-03-07 08:23:00,40.8,40.0,30.05,South,172,0.0,0.0,97,0.00,-RA,-RA,0.02,WeatherDisplay:10.37,2013-03-07 16:23:00,
2013-03-07 08:28:00,40.9,40.1,30.05,South,172,0.0,0.0,97,0.00,-RA,-RA,0.02,WeatherDisplay:10.37,2013-03-07 16:28:00,
2013-03-07 08:33:00,41.1,40.3,30.05,South,172,0.0,0.0,97,0.00,-RA,-RA,0.02,WeatherDisplay:10.37,2013-03-07 16:33:00,
2013-03-07 08:38:00,41.3,40.5,30.05,South,172,0.0,0.0,97,0.00,-RA,-RA,0.02,WeatherDisplay:10.37,2013-03-07 16:38:00,
2013-03-07 08:48:00,41.7,40.9,30.06,South,170,0.0,0.0,97,0.00,-RA,-RA,0.02,WeatherDisplay:10.37,2013-03-07 16:48:00,
2013-03-07 08:53:00,41.9,41.1,30.06,South,170,0.0,0.0,97,0.00,-RA,-RA,0.02,WeatherDisplay:10.37,2013-03-07 16:53:00,
2013-03-07 08:58:00,42.0,41.2,30.06,South,170,0.0,0.0,97,0.00,-RA,-RA,0.02,WeatherDisplay:10.37,2013-03-07 16:58:00,
2013-03-07 09:03:00,42.3,41.5,30.06,South,185,0.0,0.0,97,0.00,-RA,-RA,0.02,WeatherDisplay:10.37,2013-03-07 17:03:00,
2013-03-07 09:13:00,42.5,41.7,30.07,West,260,0.0,0.0,97,0.00,-RA,-RA,0.02,WeatherDisplay:10.37,2013-03-07 17:13:00,
2013-03-07 09:18:00,42.7,41.9,30.07,West,260,0.0,0.0,97,0.00,-RA,-RA,0.02,WeatherDisplay:10.37,2013-03-07 17:18:00,
2013-03-07 09:23:00,42.8,42.0,30.07,West,260,0.0,0.0,97,0.00,-RA,-RA,0.02,WeatherDisplay:10.37,2013-03-07 17:23:00,
2013-03-07 09:33:00,42.9,42.1,30.07,SE,146,0.0,0.0,97,0.00,-RA,-RA,0.02,WeatherDisplay:10.37,2013-03-07 17:33:00,
2013-03-07 09:43:00,43.3,42.5,30.08,ESE,123,0.0,0.0,97,0.00,-RA,-RA,0.02,WeatherDisplay:10.37,2013-03-07 17:43:00,
2013-03-07 09:48:00,43.6,42.5,30.08,South,188,0.0,2.0,96,0.00,-RA,-RA,0.02,WeatherDisplay:10.37,2013-03-07 17:48:00,
2013-03-07 09:53:00,43.7,42.6,30.08,WSW,250,0.0,2.0,96,0.00,-RA,-RA,0.02,WeatherDisplay:10.37,2013-03-07 17:53:00,
2013-03-07 09:58:00,44.1,43.0,30.08,NW,324,0.0,0.0,96,0.00,-RA,-RA,0.02,WeatherDisplay:10.37,2013-03-07 17:58:00,
2013-03-07 10:03:00,44.3,42.9,30.08,NW,324,0.0,1.0,95,0.00,-RA,-RA,0.02,WeatherDisplay:10.37,2013-03-07 18:03:00,
2013-03-07 10:08:00,44.2,42.6,30.08,SSE,154,0.0,1.0,94,0.00,-RA,-RA,0.02,WeatherDisplay:10.37,2013-03-07 18:08:00,
2013-03-07 10:13:00,44.3,42.7,30.08,SSW,202,0.0,1.0,94,0.00,-RA,-RA,0.02,WeatherDisplay:10.37,2013-03-07 18:13:00,
2013-03-07 10:18:00,44.3,42.7,30.08,SW,223,0.0,2.0,94,0.00,-RA,-RA,0.02,WeatherDisplay:10.37,2013-03-07 18:18:00,
2013-03-07 10:23:00,44.5,42.6,30.08,SSW,208,0.0,1.0,93,0.00,-RA,-RA,0.02,WeatherDisplay:10.37,2013-03-07 18:23:00,
2013-03-07 10:28:00,44.7,43.1,30.08,West,274,0.0,1.0,94,0.00,-RA,-RA,0.02,WeatherDisplay:10.37,2013-03-07 18:28:00,
2013-03-07 10:33:00,44.9,43.0,30.08,NW,322,0.0,0.0,93,0.00,-RA,-RA,0.02,WeatherDisplay:10.37,2013-03-07 18:33:00,
2013-03-07 10:38:00,45.1,43.2,30.09,NW,322,0.0,0.0,93,0.00,-RA,-RA,0.02,WeatherDisplay:10.37,2013-03-07 18:38:00,
2013-03-07 10:43:00,45.0,42.8,30.09,NNW,333,0.0,0.0,92,0.00,-RA,-RA,0.02,WeatherDisplay:10.37,2013-03-07 18:43:00,
2013-03-07 10:53:00,45.5,43.3,30.09,SW,221,0.0,0.0,92,0.00,-RA,-RA,0.02,WeatherDisplay:10.37,2013-03-07 18:53:00,
2013-03-07 10:58:00,45.8,43.9,30.09,SW,232,0.0,0.0,93,0.00,-RA,-RA,0.02,WeatherDisplay:10.37,2013-03-07 18:58:00,
2013-03-07 11:03:00,46.0,43.2,30.09,SSW,211,0.0,0.0,90,0.00,-RA,-RA,0.02,WeatherDisplay:10.37,2013-03-07 19:03:00,
2013-03-07 11:08:00,46.5,44.0,30.09,SW,228,0.0,2.0,91,0.00,-RA,-RA,0.02,WeatherDisplay:10.37,2013-03-07 19:08:00,
2013-03-07 11:13:00,46.9,43.5,30.09,WSW,249,1.0,2.0,88,0.00,-RA,-RA,0.02,WeatherDisplay:10.37,2013-03-07 19:13:00,
2013-03-07 11:18:00,47.0,43.6,30.09,SW,230,0.0,2.0,88,0.00,-RA,-RA,0.02,WeatherDisplay:10.37,2013-03-07 19:18:00,
2013-03-07 11:28:00,47.1,43.7,30.10,East,95,0.0,0.0,88,0.00,-RA,-RA,0.02,WeatherDisplay:10.37,2013-03-07 19:28:00,
2013-03-07 11:38:00,47.1,43.4,30.10,South,170,0.0,1.0,87,0.00,-RA,-RA,0.02,WeatherDisplay:10.37,2013-03-07 19:38:00,
2013-03-07 11:48:00,47.2,43.2,30.10,West,262,0.0,0.0,86,0.00,-RA,-RA,0.02,WeatherDisplay:10.37,2013-03-07 19:48:00,
2013-03-07 11:53:00,47.2,43.5,30.09,WNW,291,0.0,0.0,87,0.00,-RA,-RA,0.02,WeatherDisplay:10.37,2013-03-07 19:53:00,
2013-03-07 11:58:00,47.5,43.8,30.10,North,350,0.0,1.0,87,0.00,-RA,-RA,0.02,WeatherDisplay:10.37,2013-03-07 19:58:00,
2013-03-07 12:03:00,48.1,44.1,30.09,ENE,61,0.0,1.0,86,0.00,-RA,-RA,0.02,WeatherDisplay:10.37,2013-03-07 20:03:00,
2013-03-07 12:08:00,49.4,45.4,30.09,NNW,345,0.0,1.0,86,0.00,-RA,-RA,0.02,WeatherDisplay:10.37,2013-03-07 20:08:00,
2013-03-07 12:13:00,49.8,43.2,30.09,West,260,0.0,2.0,78,0.00,-RA,-RA,0.02,WeatherDisplay:10.37,2013-03-07 20:13:00,
2013-03-07 12:18:00,49.6,44.0,30.09,WSW,242,0.0,1.0,81,0.00,-RA,-RA,0.02,WeatherDisplay:10.37,2013-03-07 20:18:00,
2013-03-07 12:23:00,49.7,43.4,30.09,SW,236,0.0,2.0,79,0.00,-RA,-RA,0.02,WeatherDisplay:10.37,2013-03-07 20:23:00,
2013-03-07 12:28:00,49.4,43.2,30.08,WSW,253,0.0,3.0,79,0.00,-RA,-RA,0.02,WeatherDisplay:10.37,2013-03-07 20:28:00,
2013-03-07 12:33:00,49.5,44.2,30.08,South,173,0.0,1.0,82,0.00,-RA,-RA,0.02,WeatherDisplay:10.37,2013-03-07 20:33:00,
2013-03-07 12:43:00,48.8,41.9,30.08,West,275,1.0,3.0,77,0.00,-RA,-RA,0.02,WeatherDisplay:10.37,2013-03-07 20:43:00,
2013-03-07 12:48:00,48.5,42.0,30.08,West,263,1.0,3.0,78,0.00,-RA,-RA,0.02,WeatherDisplay:10.37,2013-03-07 20:48:00,
2013-03-07 12:58:00,48.3,42.4,30.08,WSW,256,1.0,3.0,80,0.00,-RA,-RA,0.02,WeatherDisplay:10.37,2013-03-07 20:58:00,
2013-03-07 13:08:00,48.6,44.0,30.08,WSW,252,0.0,1.0,84,0.00,-RA,-RA,0.02,WeatherDisplay:10.37,2013-03-07 21:08:00,
2013-03-07 13:18:00,51.7,44.7,30.07,WNW,299,1.0,3.0,77,0.00,-RA,-RA,0.02,WeatherDisplay:10.37,2013-03-07 21:18:00,
2013-03-07 13:23:00,51.8,43.1,30.07,West,272,0.0,1.0,72,0.00,-RA,-RA,0.02,WeatherDisplay:10.37,2013-03-07 21:23:00,
2013-03-07 13:28:00,51.8,42.7,30.07,WSW,258,0.0,1.0,71,0.00,-RA,-RA,0.02,WeatherDisplay:10.37,2013-03-07 21:28:00,
2013-03-07 13:33:00,51.4,41.6,30.07,SW,223,0.0,4.0,69,0.00,-RA,-RA,0.02,WeatherDisplay:10.37,2013-03-07 21:33:00,
2013-03-07 13:38:00,51.7,42.2,30.07,SW,227,1.0,3.0,70,0.00,-RA,-RA,0.02,WeatherDisplay:10.37,2013-03-07 21:38:00,
2013-03-07 13:43:00,52.2,42.7,30.07,WSW,244,1.0,4.0,70,0.00,-RA,-RA,0.02,WeatherDisplay:10.37,2013-03-07 21:43:00,
2013-03-07 13:48:00,52.4,41.8,30.07,SW,224,0.0,1.0,67,0.00,-RA,-RA,0.02,WeatherDisplay:10.37,2013-03-07 21:48:00,
2013-03-07 13:53:00,52.2,40.8,30.07,SW,224,0.0,1.0,65,0.00,-RA,-RA,0.02,WeatherDisplay:10.37,2013-03-07 21:53:00,
2013-03-07 13:58:00,52.6,41.6,30.07,SW,231,0.0,2.0,66,0.00,-RA,-RA,0.02,WeatherDisplay:10.37,2013-03-07 21:58:00,
2013-03-07 14:03:00,52.5,41.5,30.07,WSW,242,0.0,2.0,66,0.00,-RA,-RA,0.02,WeatherDisplay:10.37,2013-03-07 22:03:00,
2013-03-07 14:08:00,52.3,41.7,30.07,WSW,247,0.0,2.0,67,0.00,-RA,-RA,0.02,WeatherDisplay:10.37,2013-03-07 22:08:00,
2013-03-07 14:13:00,52.0,42.1,30.06,SW,236,0.0,2.0,69,0.00,-RA,-RA,0.02,WeatherDisplay:10.37,2013-03-07 22:13:00,
2013-03-07 14:18:00,51.7,41.5,30.07,SSW,202,0.0,1.0,68,0.00,-RA,-RA,0.02,WeatherDisplay:10.37,2013-03-07 22:18:00,
2013-03-07 14:23:00,51.2,41.0,30.06,WNW,293,0.0,1.0,68,0.00,-RA,-RA,0.02,WeatherDisplay:10.37,2013-03-07 22:23:00,
2013-03-07 14:28:00,51.2,41.7,30.07,WSW,250,0.0,2.0,70,0.00,-RA,-RA,0.02,WeatherDisplay:10.37,2013-03-07 22:28:00,
2013-03-07 14:33:00,51.2,42.1,30.07,WSW,245,0.0,1.0,71,0.00,-RA,-RA,0.02,WeatherDisplay:10.37,2013-03-07 22:33:00,
2013-03-07 14:38:00,51.2,41.4,30.07,WSW,247,0.0,3.0,69,0.00,-RA,-RA,0.02,WeatherDisplay:10.37,2013-03-07 22:38:00,
2013-03-07 14:43:00,51.6,41.0,30.06,SW,234,0.0,1.0,67,0.00,-RA,-RA,0.02,WeatherDisplay:10.37,2013-03-07 22:43:00,
2013-03-07 14:48:00,52.4,43.6,30.06,SW,234,0.0,1.0,72,0.00,-RA,-RA,0.02,WeatherDisplay:10.37,2013-03-07 22:48:00,
2013-03-07 14:53:00,53.1,43.6,30.07,WSW,243,0.0,2.0,70,0.00,-RA,-RA,0.02,WeatherDisplay:10.37,2013-03-07 22:53:00,
2013-03-07 14:58:00,53.0,42.4,30.07,SW,233,1.0,1.0,67,0.00,-RA,-RA,0.02,WeatherDisplay:10.37,2013-03-07 22:58:00,
2013-03-07 15:03:00,52.8,42.1,30.07,ESE,108,0.0,0.0,67,0.00,-RA,-RA,0.02,WeatherDisplay:10.37,2013-03-07 23:03:00,
2013-03-07 15:08:00,52.4,42.5,30.07,East,98,0.0,0.0,69,0.00,-RA,-RA,0.02,WeatherDisplay:10.37,2013-03-07 23:08:00,
2013-03-07 15:13:00,51.9,42.1,30.07,East,82,0.0,1.0,69,0.00,-RA,-RA,0.02,WeatherDisplay:10.37,2013-03-07 23:13:00,
2013-03-07 15:18:00,51.5,41.3,30.07,NE,42,0.0,1.0,68,0.00,-RA,-RA,0.02,WeatherDisplay:10.37,2013-03-07 23:18:00,
2013-03-07 15:23:00,51.2,42.1,30.07,NNE,21,0.0,1.0,71,0.00,-RA,-RA,0.02,WeatherDisplay:10.37,2013-03-07 23:23:00,
2013-03-07 15:28:00,50.9,41.1,30.07,NNE,31,1.0,2.0,69,0.00,-RA,-RA,0.02,WeatherDisplay:10.37,2013-03-07 23:28:00,
2013-03-07 15:33:00,50.7,40.9,30.07,SW,224,0.0,2.0,69,0.00,-RA,-RA,0.02,WeatherDisplay:10.37,2013-03-07 23:33:00,
2013-03-07 15:38:00,50.6,40.0,30.07,SW,236,0.0,2.0,67,0.00,-RA,-RA,0.02,WeatherDisplay:10.37,2013-03-07 23:38:00,
2013-03-07 15:43:00,50.4,39.4,30.07,West,265,0.0,1.0,66,0.00,-RA,-RA,0.02,WeatherDisplay:10.37,2013-03-07 23:43:00,
2013-03-07 15:48:00,50.2,39.7,30.07,West,277,0.0,1.0,67,0.00,-RA,-RA,0.02,WeatherDisplay:10.37,2013-03-07 23:48:00,
2013-03-07 15:53:00,50.1,40.0,30.07,West,276,0.0,1.0,68,0.00,-RA,-RA,0.02,WeatherDisplay:10.37,2013-03-07 23:53:00,
2013-03-07 15:58:00,50.2,40.4,30.07,West,276,0.0,1.0,69,0.00,-RA,-RA,0.02,WeatherDisplay:10.37,2013-03-07 23:58:00,
2013-03-07 16:03:00,50.3,41.6,30.06,West,276,0.0,0.0,72,0.00,-RA,-RA,0.02,WeatherDisplay:10.37,2013-03-08 00:03:00,
2013-03-07 16:08:00,50.3,42.7,30.07,West,276,0.0,0.0,75,0.00,-RA,-RA,0.02,WeatherDisplay:10.37,2013-03-08 00:08:00,
2013-03-07 16:13:00,50.3,42.0,30.06,West,277,0.0,0.0,73,0.00,-RA,-RA,0.02,WeatherDisplay:10.37,2013-03-08 00:13:00,
2013-03-07 16:23:00,49.9,41.6,30.06,West,280,0.0,0.0,73,0.00,-RA,-RA,0.02,WeatherDisplay:10.37,2013-03-08 00:23:00,
2013-03-07 16:28:00,49.8,41.8,30.06,West,280,0.0,0.0,74,0.00,-RA,-RA,0.02,WeatherDisplay:10.37,2013-03-08 00:28:00,
2013-03-07 16:33:00,49.6,42.0,30.06,West,280,0.0,0.0,75,0.00,-RA,-RA,0.02,WeatherDisplay:10.37,2013-03-08 00:33:00,
2013-03-07 16:38:00,49.6,42.3,30.07,West,279,0.0,0.0,76,0.00,-RA,-RA,0.02,WeatherDisplay:10.37,2013-03-08 00:38:00,
2013-03-07 16:43:00,49.5,42.2,30.06,West,280,0.0,0.0,76,0.00,-RA,-RA,0.02,WeatherDisplay:10.37,2013-03-08 00:43:00,
2013-03-07 16:48:00,49.3,42.1,30.06,West,280,0.0,0.0,76,0.00,-RA,-RA,0.02,WeatherDisplay:10.37,2013-03-08 00:48:00,
2013-03-07 16:53:00,48.9,42.0,30.06,West,280,0.0,0.0,77,0.00,-RA,-RA,0.02,WeatherDisplay:10.37,2013-03-08 00:53:00,
2013-03-07 16:58:00,48.8,42.6,30.07,West,279,0.0,0.0,79,0.00,-RA,-RA,0.02,WeatherDisplay:10.37,2013-03-08 00:58:00,
2013-03-07 17:03:00,48.6,42.4,30.07,West,280,0.0,0.0,79,0.00,-RA,-RA,0.02,WeatherDisplay:10.37,2013-03-08 01:03:00,
2013-03-07 17:08:00,48.4,42.2,30.07,West,280,0.0,0.0,79,0.00,-RA,-RA,0.02,WeatherDisplay:10.37,2013-03-08 01:08:00,
2013-03-07 17:13:00,48.2,42.3,30.07,West,280,0.0,0.0,80,0.00,-RA,-RA,0.02,WeatherDisplay:10.37,2013-03-08 01:13:00,
2013-03-07 17:18:00,48.0,42.4,30.07,West,280,0.0,0.0,81,0.00,-RA,-RA,0.02,WeatherDisplay:10.37,2013-03-08 01:18:00,
2013-03-07 17:23:00,47.6,41.8,30.07,West,280,0.0,0.0,80,0.00,-RA,-RA,0.02,WeatherDisplay:10.37,2013-03-08 01:23:00,
2013-03-07 17:28:00,47.3,42.1,30.07,West,280,0.0,0.0,82,0.00,-RA,-RA,0.02,WeatherDisplay:10.37,2013-03-08 01:28:00,
2013-03-07 17:33:00,47.0,42.4,30.07,West,280,0.0,0.0,84,0.00,-RA,-RA,0.02,WeatherDisplay:10.37,2013-03-08 01:33:00,
2013-03-07 17:38:00,46.7,42.4,30.07,West,280,0.0,0.0,85,0.00,-RA,-RA,0.02,WeatherDisplay:10.37,2013-03-08 01:38:00,
2013-03-07 17:43:00,46.4,42.1,30.07,West,280,0.0,0.0,85,0.00,-RA,-RA,0.02,WeatherDisplay:10.37,2013-03-08 01:43:00,
2013-03-07 17:48:00,46.1,42.1,30.07,West,280,0.0,0.0,86,0.00,-RA,-RA,0.02,WeatherDisplay:10.37,2013-03-08 01:48:00,
2013-03-07 17:53:00,45.8,42.2,30.07,West,280,0.0,0.0,87,0.00,-RA,-RA,0.02,WeatherDisplay:10.37,2013-03-08 01:53:00,
2013-03-07 17:58:00,45.6,41.9,30.07,West,279,0.0,0.0,87,0.00,-RA,-RA,0.02,WeatherDisplay:10.37,2013-03-08 01:58:00,
2013-03-07 18:03:00,45.4,42.1,30.07,West,280,0.0,0.0,88,0.00,-RA,-RA,0.02,WeatherDisplay:10.37,2013-03-08 02:03:00,
2013-03-07 18:08:00,45.3,42.2,30.07,West,280,0.0,0.0,89,0.00,-RA,-RA,0.02,WeatherDisplay:10.37,2013-03-08 02:08:00,
2013-03-07 18:18:00,44.9,41.9,30.07,West,280,0.0,0.0,89,0.00,-RA,-RA,0.02,WeatherDisplay:10.37,2013-03-08 02:18:00,
2013-03-07 18:23:00,44.7,41.6,30.07,West,280,0.0,0.0,89,0.00,-RA,-RA,0.02,WeatherDisplay:10.37,2013-03-08 02:23:00,
2013-03-07 18:28:00,44.4,41.3,30.07,West,280,0.0,0.0,89,0.00,-RA,-RA,0.02,WeatherDisplay:10.37,2013-03-08 02:28:00,
2013-03-07 18:33:00,44.0,41.3,30.08,West,280,0.0,0.0,90,0.00,-RA,-RA,0.02,WeatherDisplay:10.37,2013-03-08 02:33:00,
2013-03-07 18:38:00,43.7,40.9,30.08,West,280,0.0,0.0,90,0.00,-RA,-RA,0.02,WeatherDisplay:10.37,2013-03-08 02:38:00,
2013-03-07 18:43:00,43.2,40.5,30.08,West,280,0.0,0.0,90,0.00,-RA,-RA,0.02,WeatherDisplay:10.37,2013-03-08 02:43:00,
2013-03-07 18:48:00,42.8,40.4,30.08,West,280,0.0,0.0,91,0.00,-RA,-RA,0.02,WeatherDisplay:10.37,2013-03-08 02:48:00,
2013-03-07 18:53:00,42.5,40.0,30.08,West,280,0.0,0.0,91,0.00,-RA,-RA,0.02,WeatherDisplay:10.37,2013-03-08 02:53:00,
2013-03-07 18:58:00,42.1,39.7,30.08,West,279,0.0,0.0,91,0.00,-RA,-RA,0.02,WeatherDisplay:10.37,2013-03-08 02:58:00,
2013-03-07 19:03:00,41.8,39.4,30.08,West,280,0.0,0.0,91,0.00,-RA,-RA,0.02,WeatherDisplay:10.37,2013-03-08 03:03:00,
2013-03-07 19:08:00,41.5,39.3,30.08,West,280,0.0,0.0,92,0.00,-RA,-RA,0.02,WeatherDisplay:10.37,2013-03-08 03:08:00,
2013-03-07 19:13:00,41.3,39.4,30.08,West,280,0.0,0.0,93,0.00,-RA,-RA,0.02,WeatherDisplay:10.37,2013-03-08 03:13:00,
2013-03-07 19:18:00,41.1,39.2,30.08,West,280,0.0,0.0,93,0.00,-RA,-RA,0.02,WeatherDisplay:10.37,2013-03-08 03:18:00,
2013-03-07 19:23:00,41.0,39.1,30.08,West,280,0.0,0.0,93,0.00,-RA,-RA,0.02,WeatherDisplay:10.37,2013-03-08 03:23:00,
2013-03-07 19:28:00,40.7,38.9,30.08,West,280,0.0,0.0,93,0.00,-RA,-RA,0.02,WeatherDisplay:10.37,2013-03-08 03:28:00,
2013-03-07 19:33:00,40.5,38.9,30.08,West,280,0.0,0.0,94,0.00,-RA,-RA,0.02,WeatherDisplay:10.37,2013-03-08 03:33:00,
2013-03-07 19:38:00,40.3,38.7,30.08,West,279,0.0,0.0,94,0.00,-RA,-RA,0.02,WeatherDisplay:10.37,2013-03-08 03:38:00,
2013-03-07 19:43:00,40.0,38.4,30.08,West,280,0.0,0.0,94,0.00,-RA,-RA,0.02,WeatherDisplay:10.37,2013-03-08 03:43:00,
2013-03-07 19:48:00,39.8,38.2,30.09,West,280,0.0,0.0,94,0.00,-RA,-RA,0.02,WeatherDisplay:10.37,2013-03-08 03:48:00,
2013-03-07 19:53:00,39.6,38.0,30.09,West,280,0.0,0.0,94,0.00,-RA,-RA,0.02,WeatherDisplay:10.37,2013-03-08 03:53:00,
2013-03-07 19:58:00,39.4,37.8,30.09,West,280,0.0,0.0,94,0.00,-RA,-RA,0.02,WeatherDisplay:10.37,2013-03-08 03:58:00,
2013-03-07 20:03:00,39.2,37.6,30.09,West,280,0.0,0.0,94,0.00,-RA,-RA,0.02,WeatherDisplay:10.37,2013-03-08 04:03:00,
2013-03-07 20:08:00,39.1,37.8,30.09,West,280,0.0,0.0,95,0.00,-RA,-RA,0.02,WeatherDisplay:10.37,2013-03-08 04:08:00,
2013-03-07 20:13:00,39.1,37.8,30.09,West,280,0.0,0.0,95,0.00,-RA,-RA,0.02,WeatherDisplay:10.37,2013-03-08 04:13:00,
2013-03-07 20:18:00,39.0,37.7,30.09,West,280,0.0,0.0,95,0.00,-RA,-RA,0.02,WeatherDisplay:10.37,2013-03-08 04:18:00,
2013-03-07 20:23:00,38.8,37.5,30.09,West,280,0.0,0.0,95,0.00,-RA,-RA,0.02,WeatherDisplay:10.37,2013-03-08 04:23:00,
2013-03-07 20:28:00,38.7,37.4,30.09,West,279,0.0,0.0,95,0.00,-RA,-RA,0.02,WeatherDisplay:10.37,2013-03-08 04:28:00,
2013-03-07 20:33:00,38.6,37.3,30.09,West,280,0.0,0.0,95,0.00,-RA,-RA,0.02,WeatherDisplay:10.37,2013-03-08 04:33:00,
2013-03-07 20:38:00,38.4,37.1,30.09,West,280,0.0,0.0,95,0.00,-RA,-RA,0.02,WeatherDisplay:10.37,2013-03-08 04:38:00,
2013-03-07 20:43:00,38.1,36.8,30.09,West,280,0.0,0.0,95,0.00,-RA,-RA,0.02,WeatherDisplay:10.37,2013-03-08 04:43:00,
2013-03-07 20:48:00,37.9,36.6,30.09,West,280,0.0,0.0,95,0.00,-RA,-RA,0.02,WeatherDisplay:10.37,2013-03-08 04:48:00,
2013-03-07 20:53:00,37.7,36.4,30.09,West,280,0.0,0.0,95,0.00,-RA,-RA,0.02,WeatherDisplay:10.37,2013-03-08 04:53:00,
2013-03-07 20:58:00,37.8,36.8,30.09,West,279,0.0,0.0,96,0.00,-RA,-RA,0.02,WeatherDisplay:10.37,2013-03-08 04:58:00,
2013-03-07 21:03:00,37.8,36.8,30.09,West,278,0.0,0.0,96,0.00,-RA,-RA,0.02,WeatherDisplay:10.37,2013-03-08 05:03:00,
2013-03-07 21:08:00,37.6,36.6,30.09,West,278,0.0,0.0,96,0.00,-RA,-RA,0.02,WeatherDisplay:10.37,2013-03-08 05:08:00,
2013-03-07 21:13:00,37.4,36.1,30.09,West,278,0.0,0.0,95,0.00,-RA,-RA,0.02,WeatherDisplay:10.37,2013-03-08 05:13:00,
2013-03-07 21:18:00,37.1,35.8,30.09,West,278,0.0,0.0,95,0.00,-RA,-RA,0.02,WeatherDisplay:10.37,2013-03-08 05:18:00,
2013-03-07 21:23:00,36.8,35.5,30.09,West,278,0.0,0.0,95,0.00,-RA,-RA,0.02,WeatherDisplay:10.37,2013-03-08 05:23:00,
2013-03-07 21:28:00,36.5,35.2,30.09,West,278,0.0,0.0,95,0.00,-RA,-RA,0.02,WeatherDisplay:10.37,2013-03-08 05:28:00,
2013-03-07 21:33:00,36.2,34.9,30.09,West,278,0.0,0.0,95,0.00,-RA,-RA,0.02,WeatherDisplay:10.37,2013-03-08 05:33:00,
2013-03-07 21:38:00,36.0,34.7,30.09,West,278,0.0,0.0,95,0.00,-RA,-RA,0.02,WeatherDisplay:10.37,2013-03-08 05:38:00,
2013-03-07 21:43:00,35.8,34.8,30.09,West,278,0.0,0.0,96,0.00,-RA,-RA,0.02,WeatherDisplay:10.37,2013-03-08 05:43:00,
2013-03-07 21:48:00,35.7,34.7,30.09,West,278,0.0,0.0,96,0.00,-RA,-RA,0.02,WeatherDisplay:10.37,2013-03-08 05:48:00,
2013-03-07 21:53:00,35.7,34.7,30.09,West,278,0.0,0.0,96,0.00,-RA,-RA,0.02,WeatherDisplay:10.37,2013-03-08 05:53:00,
2013-03-07 21:58:00,35.8,34.8,30.09,West,278,0.0,0.0,96,0.00,-RA,-RA,0.02,WeatherDisplay:10.37,2013-03-08 05:58:00,
2013-03-07 22:03:00,35.7,34.7,30.09,West,278,0.0,0.0,96,0.00,-RA,-RA,0.02,WeatherDisplay:10.37,2013-03-08 06:03:00,
2013-03-07 22:08:00,35.5,34.5,30.09,West,278,0.0,0.0,96,0.00,-RA,-RA,0.02,WeatherDisplay:10.37,2013-03-08 06:08:00,
2013-03-07 22:13:00,35.4,34.4,30.09,West,278,0.0,0.0,96,0.00,-RA,-RA,0.02,WeatherDisplay:10.37,2013-03-08 06:13:00,
2013-03-07 22:18:00,35.2,34.2,30.09,West,278,0.0,0.0,96,0.00,-RA,-RA,0.02,WeatherDisplay:10.37,2013-03-08 06:18:00,
2013-03-07 22:23:00,35.0,34.0,30.09,West,278,0.0,0.0,96,0.00,-RA,-RA,0.02,WeatherDisplay:10.37,2013-03-08 06:23:00,
2013-03-07 22:28:00,35.0,34.0,30.09,West,278,0.0,0.0,96,0.00,-RA,-RA,0.02,WeatherDisplay:10.37,2013-03-08 06:28:00,
2013-03-07 22:33:00,35.0,34.0,30.09,West,278,0.0,0.0,96,0.00,-RA,-RA,0.02,WeatherDisplay:10.37,2013-03-08 06:33:00,
2013-03-07 22:38:00,34.8,33.8,30.10,West,278,0.0,0.0,96,0.00,-RA,-RA,0.02,WeatherDisplay:10.37,2013-03-08 06:38:00,
2013-03-07 22:43:00,34.5,33.5,30.09,West,278,0.0,0.0,96,0.00,-RA,-RA,0.02,WeatherDisplay:10.37,2013-03-08 06:43:00,
2013-03-07 22:48:00,34.4,33.4,30.10,West,278,0.0,0.0,96,0.00,-RA,-RA,0.02,WeatherDisplay:10.37,2013-03-08 06:48:00,
2013-03-07 22:53:00,34.4,33.4,30.10,West,278,0.0,0.0,96,0.00,-RA,-RA,0.02,WeatherDisplay:10.37,2013-03-08 06:53:00,
2013-03-07 22:58:00,34.4,33.4,30.10,West,278,0.0,0.0,96,0.00,-RA,-RA,0.02,WeatherDisplay:10.37,2013-03-08 06:58:00,
2013-03-07 23:03:00,34.2,33.2,30.10,West,278,0.0,0.0,96,0.00,-RA,-RA,0.02,WeatherDisplay:10.37,2013-03-08 07:03:00,
2013-03-07 23:08:00,34.0,32.9,30.09,West,278,0.0,0.0,96,0.00,-RA,-RA,0.02,WeatherDisplay:10.37,2013-03-08 07:08:00,
2013-03-07 23:13:00,33.8,32.8,30.09,West,278,0.0,0.0,96,0.00,-RA,-RA,0.02,WeatherDisplay:10.37,2013-03-08 07:13:00,
2013-03-07 23:18:00,33.7,32.7,30.10,West,278,0.0,0.0,96,0.00,-RA,-RA,0.02,WeatherDisplay:10.37,2013-03-08 07:18:00,
2013-03-07 23:23:00,33.6,32.6,30.10,West,278,0.0,0.0,96,0.00,-RA,-RA,0.02,WeatherDisplay:10.37,2013-03-08 07:23:00,
2013-03-07 23:28:00,33.4,32.3,30.10,West,278,0.0,0.0,96,0.00,-RA,-RA,0.02,WeatherDisplay:10.37,2013-03-08 07:28:00,
2013-03-07 23:33:00,33.2,32.2,30.10,West,278,0.0,0.0,96,0.00,-RA,-RA,0.02,WeatherDisplay:10.37,2013-03-08 07:33:00,
2013-03-07 23:38:00,33.1,32.1,30.10,West,278,0.0,0.0,96,0.00,-RA,-RA,0.02,WeatherDisplay:10.37,2013-03-08 07:38:00,
2013-03-07 23:43:00,33.0,32.0,30.10,West,278,0.0,0.0,96,0.00,-RA,-RA,0.02,WeatherDisplay:10.37,2013-03-08 07:43:00,
2013-03-07 23:48:00,32.9,31.9,30.10,West,278,0.0,0.0,96,0.00,-RA,-RA,0.02,WeatherDisplay:10.37,2013-03-08 07:48:00,
2013-03-07 23:53:00,32.6,31.6,30.10,West,278,0.0,0.0,96,0.00,-RA,-RA,0.02,WeatherDisplay:10.37,2013-03-08 07:53:00,
2013-03-07 23:58:00,32.3,31.3,30.10,West,278,0.0,0.0,96,0.00,-RA,-RA,0.02,WeatherDisplay:10.37,2013-03-08 07:58:00,